Location: Newark
(45.9456°N, 15.4064°E)
Time: 14:48:09
(UTC+00:00)

SR - Pass Details

Date: 26 January 2020
Orbit: 575 x 880 km, 66.7° (Epoch: 22 February)

Event Time Altitude Azimuth Distance (km) Brightness Sun altitude
Rises 03:33:55 0° 330° (NNW) 3,451 - -30.1°
Reaches altitude 10° 03:37:23 10° 350° (N) 2,474 - -29.5°
Exits shadow 03:38:18 13° 357° (N) 2,273 ? -29.4°
Maximum altitude 03:41:04 17° 30° (NNE) 1,958 ? -28.9°
Drops below altitude 10° 03:44:37 10° 71° (ENE) 2,356 ? -28.3°
Sets 03:47:47 0° 91° (E) 3,218 ? -27.7°
